This is the latest recevied weather packets stored in our database for station/object LX0APE-4. If no packets are shown the sender has not sent any weather packets the latest 10 day(s).
| Time | Temp. | Humidity | Pressure | Rain* | Wind** | Luminosity | Snow |
|---|---|---|---|---|---|---|---|
| 1777557724 | 25° C | 15% | 5020.5 hPa | 0 mm | - | - | - |
| 1777557424 | 24.44° C | 16% | 5020.5 hPa | 0 mm | - | - | - |
| 1777557128 | 25° C | 15% | 5020.7 hPa | 0 mm | - | - | - |
| 1777557124 | 25° C | 15% | 5020.7 hPa | 0 mm | - | - | - |
| 1777556824 | 25.56° C | 15% | 5020.6 hPa | 0 mm | - | - | - |
| 1777556524 | 25° C | 15% | 5020.7 hPa | 0 mm | - | - | - |
| 1777556229 | 24.44° C | 14% | 5020.6 hPa | 0 mm | - | - | - |
| 1777556224 | 24.44° C | 14% | 5020.6 hPa | 0 mm | - | - | - |
| 1777555924 | 25° C | 15% | 5020.7 hPa | 0 mm | - | - | - |
| 1777555624 | 24.44° C | 15% | 5020.7 hPa | 0 mm | - | - | - |
| 1777555324 | 23.89° C | 15% | 5020.7 hPa | 0 mm | - | - | - |
| 1777555024 | 23.89° C | 16% | 5020.7 hPa | 0 mm | - | - | - |
| 1777554724 | 23.89° C | 16% | 5020.8 hPa | 0 mm | - | - | - |
| 1777554424 | 23.89° C | 16% | 5020.9 hPa | 0 mm | - | - | - |
| 1777554124 | 23.33° C | 16% | 5020.8 hPa | 0 mm | - | - | - |
| 1777553824 | 23.33° C | 16% | 5020.8 hPa | 0 mm | - | - | - |
| 1777553524 | 23.33° C | 16% | 5020.9 hPa | 0 mm | - | - | - |
| 1777553224 | 22.78° C | 17% | 5020.8 hPa | 0 mm | - | - | - |
| 1777552924 | 22.78° C | 17% | 5020.9 hPa | 0 mm | - | - | - |
| 1777552624 | 22.22° C | 17% | 5020.9 hPa | 0 mm | - | - | - |
| 1777552324 | 21.67° C | 17% | 5021.1 hPa | 0 mm | - | - | - |
| 1777552024 | 21.67° C | 18% | 5021 hPa | 0 mm | - | - | - |
| 1777551724 | 21.11° C | 18% | 5020.9 hPa | 0 mm | - | - | - |
| 1777551424 | 21.11° C | 19% | 5020.9 hPa | 0 mm | - | - | - |
| 1777551124 | 20.56° C | 19% | 5021 hPa | 0 mm | - | - | - |
* Rain latest hour (hover to see other rain measurements)
** Current wind speed in m/s (hover to see current wind gust speed)